TimeEDT,TemperatureF,Dew PointF,Humidity,Sea Level PressureIn,VisibilityMPH,Wind Direction,Wind SpeedMPH,Gust SpeedMPH,PrecipitationIn,Events,Conditions,WindDirDegrees,DateUTC
12:53 AM,62.1,57.9,86,30.12,10.0,Calm,Calm,-,N/A,,Clear,0,2013-05-09 04:53:00
1:53 AM,62.1,57.9,86,30.10,10.0,Calm,Calm,-,N/A,,Clear,0,2013-05-09 05:53:00
2:53 AM,59.0,55.0,87,30.09,9.0,Calm,Calm,-,N/A,,Clear,0,2013-05-09 06:53:00
3:15 AM,57.2,55.4,94,30.09,7.0,Calm,Calm,-,N/A,,Scattered Clouds,0,2013-05-09 07:15:00
3:23 AM,57.2,55.4,94,30.09,8.0,Calm,Calm,-,N/A,,Mostly Cloudy,0,2013-05-09 07:23:00
3:29 AM,57.2,55.4,94,30.09,1.0,Variable,4.6,-,N/A,,Mist,0,2013-05-09 07:29:00
3:36 AM,57.2,55.4,94,30.09,0.5,Calm,Calm,-,N/A,Fog,Fog,0,2013-05-09 07:36:00
3:46 AM,57.2,55.4,94,30.08,2.0,Calm,Calm,-,N/A,,Overcast,0,2013-05-09 07:46:00
3:53 AM,59.0,55.9,90,30.08,3.0,Calm,Calm,-,N/A,,Overcast,0,2013-05-09 07:53:00
3:56 AM,59.0,55.4,88,30.08,1.5,Calm,Calm,-,N/A,,Overcast,0,2013-05-09 07:56:00
4:02 AM,59.0,57.2,94,30.09,0.2,Calm,Calm,-,N/A,Fog,Fog,0,2013-05-09 08:02:00
4:53 AM,60.1,57.9,93,30.09,0.2,SSE,4.6,-,N/A,Fog,Fog,150,2013-05-09 08:53:00
5:53 AM,61.0,59.0,93,30.10,0.2,Calm,Calm,-,N/A,Fog,Fog,0,2013-05-09 09:53:00
6:53 AM,62.1,60.1,93,30.12,0.2,Calm,Calm,-,N/A,Fog,Fog,0,2013-05-09 10:53:00
7:06 AM,62.6,60.8,94,30.13,0.2,Calm,Calm,-,N/A,Fog,Fog,0,2013-05-09 11:06:00
7:53 AM,63.0,62.1,97,30.14,0.2,Calm,Calm,-,N/A,Fog,Fog,0,2013-05-09 11:53:00
8:42 AM,64.4,62.6,94,30.14,0.5,Calm,Calm,-,N/A,Fog,Fog,0,2013-05-09 12:42:00
8:53 AM,64.0,62.1,93,30.14,0.5,Calm,Calm,-,N/A,Fog,Fog,0,2013-05-09 12:53:00
9:02 AM,64.4,62.6,94,30.15,1.2,Calm,Calm,-,N/A,,Overcast,0,2013-05-09 13:02:00
9:14 AM,64.4,62.6,94,30.15,2.5,Calm,Calm,-,N/A,,Overcast,0,2013-05-09 13:14:00
9:22 AM,64.4,62.6,94,30.15,4.0,Calm,Calm,-,N/A,,Overcast,0,2013-05-09 13:22:00
9:53 AM,66.0,63.0,90,30.16,9.0,Calm,Calm,-,N/A,,Overcast,0,2013-05-09 13:53:00
10:23 AM,69.8,62.6,78,30.16,10.0,SW,4.6,-,N/A,,Scattered Clouds,220,2013-05-09 14:23:00
10:53 AM,73.0,63.0,71,30.16,10.0,Calm,Calm,-,N/A,,Clear,0,2013-05-09 14:53:00
11:53 AM,80.1,62.1,54,30.16,10.0,Variable,4.6,-,N/A,,Partly Cloudy,0,2013-05-09 15:53:00
12:53 PM,80.6,55.4,42,30.15,10.0,SW,6.9,-,N/A,,Scattered Clouds,230,2013-05-09 16:53:00
1:53 PM,82.9,55.9,39,30.14,10.0,Variable,4.6,-,N/A,,Scattered Clouds,0,2013-05-09 17:53:00
2:53 PM,84.0,52.0,33,30.12,10.0,Calm,Calm,-,N/A,,Scattered Clouds,0,2013-05-09 18:53:00
3:53 PM,84.9,52.0,32,30.10,10.0,Variable,4.6,-,N/A,,Mostly Cloudy,0,2013-05-09 19:53:00
4:53 PM,82.9,54.0,37,30.09,10.0,Variable,5.8,-,N/A,,Scattered Clouds,0,2013-05-09 20:53:00
5:53 PM,82.0,55.9,41,30.08,10.0,South,6.9,-,N/A,,Scattered Clouds,170,2013-05-09 21:53:00
6:53 PM,82.0,55.9,41,30.08,10.0,South,9.2,-,N/A,,Partly Cloudy,170,2013-05-09 22:53:00
7:53 PM,79.0,55.9,45,30.08,10.0,South,5.8,-,N/A,,Partly Cloudy,190,2013-05-09 23:53:00
8:53 PM,75.0,55.9,51,30.10,10.0,South,3.5,-,N/A,,Partly Cloudy,180,2013-05-10 00:53:00
9:53 PM,71.6,57.2,60,30.12,10.0,SW,4.6,-,N/A,,Clear,220,2013-05-10 01:53:00
10:53 PM,68.0,57.0,68,30.12,10.0,Calm,Calm,-,N/A,,Clear,0,2013-05-10 02:53:00
11:53 PM,68.0,57.0,68,30.14,10.0,Calm,Calm,-,N/A,,Clear,0,2013-05-10 03:53:00